Location: Clatteringshaws Loch
(55.0508°N, 4.2860°W)
Time: 02:28:57
(UTC+01:00)

Daily predictions for brighter satellites

Satellite Brightness Start Highest point End
(mag) Time Altitude Azimuth Time Altitude Azimuth Time Altitude Azimuth
SL-16 R/B 3.7 00:02:18 10° NNW 00:05:41 34° N 00:05:41 34° N
Lacrosse 4 Rocket 4.4 00:08:29 10° NW 00:09:06 14° NW 00:09:06 14° NW
Cosmos 2333 Rocket 4.4 00:21:34 10° NNW 00:25:46 20° NNE 00:27:32 18° NE
Cosmos 2322 Rocket 3.8 00:24:27 10° NNW 00:27:23 31° NNW 00:27:23 31° NNW
ATLAS 5 CENTAUR R/B 4.0 00:26:46 10° WNW 00:29:30 26° NW 00:29:30 26° NW
Cosmos 2237 Rocket 4.4 00:37:16 10° NNW 00:41:22 20° NNE 00:43:06 17° NE
Cosmos 2082 Rocket 4.2 00:49:22 22° NNE 00:49:22 22° NNE 00:51:20 10° NE
COSMOS 2428 4.4 00:42:23 10° NNW 00:46:18 29° NNE 00:46:18 29° NNE
ATLAS 3B R/B 3.7 00:50:17 10° NW 00:54:37 40° NW 00:54:37 40° NW
COSMOS 2455 4.4 00:59:52 10° NW 01:02:59 31° NNW 01:02:59 31° NNW
Cosmos 2219 Rocket 3.9 01:10:13 10° NNW 01:14:19 28° NNE 01:14:19 28° NNE
CZ-4C R/B 3.9 01:09:06 10° NW 01:12:30 34° NW 01:12:30 34° NW
Cosmos 2360 Rocket 4.0 01:12:48 10° NNW 01:15:14 26° NNW 01:15:14 26° NNW
NOSS 3-2 (A) 4.4 01:14:41 10° NW 01:20:17 52° NNW 01:20:17 52° NNW
Cosmos 1833 Rocket 4.4 01:31:48 29° NNE 01:31:48 29° NNE 01:34:34 10° NNE
CENTAUR R/B 3.7 01:39:35 10° WNW 01:46:24 46° N 01:54:00 10° E
Cosmos 2333 Rocket 3.7 02:05:59 10° NNW 02:09:28 33° N 02:09:28 33° N
USA 229 DEB 4.3 02:20:51 50° NNW 02:21:02 50° NNW 02:27:53 10° ENE
USA 229 4.3 02:20:57 50° NNW 02:21:07 50° NNW 02:27:58 10° ENE
Cosmos 2237 Rocket 3.6 02:21:24 10° NNW 02:24:52 33° N 02:24:52 33° N
CZ-2C R/B 4.2 02:23:27 10° N 02:26:41 32° NNW 02:26:41 32° NNW
NOSS 3-1 (C) 4.1 02:30:55 56° NNE 02:30:55 56° NNE 02:36:57 10° NE
Cosmos 2082 Rocket 3.8 02:31:12 28° NNW 02:31:12 28° NNW 02:35:21 10° NNE
NOSS 3-1 (A) 4.0 02:37:55 59° NNE 02:37:55 59° NNE 02:43:57 10° NE
CZ-2D R/B 4.4 02:34:17 10° NE 02:37:12 15° E 02:37:58 14° E
SL-16 R/B 3.4 02:41:09 42° E 02:42:09 45° ENE 02:48:04 10° N
SL-16 R/B 3.5 02:43:52 10° NNW 02:49:10 38° NE 02:54:27 10° ESE
Resurs 1-4 Rocket 4.2 02:46:35 10° NE 02:50:21 19° E 02:51:05 19° E
ATLAS 2AS CENTAUR R/B 3.0 02:53:06 81° ESE 02:53:06 81° ESE 03:01:03 10° NE
Cosmos 2219 4.4 02:55:04 36° ENE 02:55:04 36° ENE 02:59:01 10° NE
Cosmos 2219 Rocket 4.0 02:54:08 10° NW 02:55:59 22° NW 02:55:59 22° NW
Cosmos 2227 Rocket 4.2 03:06:02 19° ESE 03:06:44 19° E 03:10:38 10° ENE
ARIANE 5 R/B 4.1 03:03:34 10° NNE 03:07:53 27° E 03:07:53 27° E
Lacrosse 5 rocket 3.7 03:14:18 22° E 03:14:18 22° E 03:15:57 10° ENE
Cosmos 1833 Rocket 4.4 03:13:30 22° NW 03:14:02 23° NNW 03:18:28 10° NNE
Cosmos 2297 Rocket 4.3 03:13:58 15° ESE 03:15:30 17° E 03:18:58 10° ENE
Lacrosse 5 3.7 03:35:24 22° ESE 03:35:24 22° ESE 03:38:26 10° E
Nadezhda 3 Rocket 3.9 03:34:51 86° NE 03:34:51 86° NE 03:41:01 10° NNE
ADEOS 4.0 03:29:49 10° NNE 03:34:39 56° E 03:34:39 56° E
CENTAUR R/B 3.0 03:30:40 10° NW 03:38:07 77° NE 03:46:19 10° ESE
Cosmos 968 Rocket 3.9 03:39:25 58° ENE 03:39:25 58° ENE 03:43:44 10° NNE
IRS-1C 4.3 03:33:35 10° NNE 03:38:24 69° NE 03:38:24 69° NE
Meteor 1-18 Rocket 4.4 03:40:25 67° ESE 03:40:33 67° E 03:46:15 10° NNE
ERS-2 4.3 03:41:35 10° NE 03:43:50 25° ENE 03:43:50 25° ENE
Cosmos 1461 4.2 03:49:06 41° NE 03:49:06 41° NE 03:51:53 10° NE
NOSS 2-3 (C) 4.2 03:50:55 77° NNW 03:50:55 77° NNW 03:57:13 10° NE
Cosmos 1238 Rocket 4.3 03:52:23 57° WNW 03:52:23 57° WNW 03:59:00 10° N
Cosmos 2333 Rocket 4.3 03:50:25 10° NW 03:51:25 15° NW 03:51:25 15° NW
Cosmos 1934 Rocket 3.9 03:57:56 10° NNW 04:04:06 67° W 04:04:06 67° W
Cosmos 1821 Rocket 4.2 04:02:58 10° NNW 04:08:38 53° WNW 04:08:38 53° WNW
CBERS-1 4.4 04:04:35 10° N 04:08:59 52° NW 04:08:59 52° NW
IRS-1D 3.6 04:04:41 10° NNE 04:10:04 76° ESE 04:10:46 65° SSE
Cosmos 2344 3.9 04:07:43 43° SSW 04:10:33 67° SE 04:19:55 10° NE
Cosmos 2237 Rocket 4.2 04:05:37 10° NW 04:06:37 15° NW 04:06:37 15° NW
Cosmos 2058 Rocket 4.2 04:09:25 10° N 04:13:35 42° ENE 04:17:45 10° SE
Cosmos 1605 Rocket 3.8 04:08:26 10° NNW 04:14:36 76° W 04:15:55 57° SSW
Okean 1 4.3 04:16:44 41° N 04:16:44 41° N 04:19:27 10° N
NOSS 2-3 (D) 4.3 04:15:43 59° WNW 04:16:25 64° NNW 04:22:51 10° NE
Cosmos 2082 Rocket 4.5 04:13:03 10° NW 04:16:27 16° N 04:19:58 10° NNE
NPP 4.1 04:12:28 10° N 04:17:22 46° NW 04:17:22 46° NW
CZ-2D R/B 2.1 04:12:56 10° NNE 04:18:13 75° ESE 04:19:17 56° S
RESURS DK-1 3.5 04:19:33 35° SE 04:19:49 36° ESE 04:23:38 10° NE
Cosmos 1025 Rocket 4.0 04:19:38 34° SE 04:20:49 43° E 04:24:54 10° NNE
Spot 4 Rocket 3.9 04:15:59 10° NNE 04:21:08 71° WNW 04:21:15 71° W
NOSS 3-4 (A) 3.9 04:21:31 41° S 04:23:32 57° SE 04:30:02 10° NE
NOSS 3-4 (C) 3.9 04:21:36 41° S 04:23:39 57° SE 04:30:09 10° NE
SL-16 R/B 2.8 04:26:15 47° W 04:26:15 47° W 04:31:53 10° NNW
CZ-2C R/B 4.0 04:23:18 11° SSE 04:27:43 67° ENE 04:32:25 10° NNW
Cosmos 1666 3.0 04:26:08 10° N 04:29:40 64° NE 04:29:40 64° NE
SL-24 R/B 4.2 04:30:01 67° SSW 04:30:38 83° W 04:35:30 10° N
Resurs 1-4 Rocket 2.0 04:25:33 10° NNE 04:30:55 88° WNW 04:32:09 55° SSW
SL-16 R/B 2.1 04:28:01 10° NW 04:33:39 63° WSW 04:39:15 10° SSE
ARGOS Delta rocket 3.8 04:30:18 10° NNE 04:35:13 86° WNW 04:36:20 56° SSW
IRAS Rocket 4.1 04:30:25 10° NNE 04:35:58 76° WNW 04:37:15 53° SW
Meteor 1-19 Rocket 4.5 04:33:16 27° S 04:36:21 66° E 04:41:54 10° NNE
Meteor 2-9 Rocket 4.2 04:30:53 10° NNW 04:36:33 84° ENE 04:42:21 10° SSE
Cosmos 2098 Rocket 4.2 04:34:02 10° N 04:37:39 41° ENE 04:42:07 10° SE
Cosmos 2219 3.5 04:37:00 45° WNW 04:37:53 49° NW 04:43:22 10° NNE
Meteor 2-8 Rocket 4.3 04:37:09 39° SSW 04:39:39 84° W 04:45:49 10° NNE
MOS 1-B 4.4 04:35:05 10° NNE 04:40:54 75° ESE 04:44:09 27° S
Cosmos 1606 Rocket 3.4 04:36:43 10° NNW 04:41:08 79° W 04:41:21 76° SW
Cosmos 1777 Rocket 3.9 04:41:06 57° WSW 04:42:02 72° WNW 04:47:21 10° NNE
ATLAS 2AS CENTAUR R/B 3.5 04:40:32 30° W 04:44:34 54° NNW 04:52:33 10° ENE
Cosmos 220 Rocket 4.0 04:44:26 57° S 04:45:07 71° ESE 04:49:21 10° NNE
BREEZE-M DEB (TANK) 4.2 04:46:48 42° S 04:46:49 42° S 04:53:35 10° ESE
ARIANE 5 R/B 2.6 04:42:24 10° N 04:47:25 58° WNW 04:48:14 51° WSW
GEOS 3 Rocket 3.6 04:43:29 10° NE 04:48:37 70° NW 04:50:00 47° WSW
Cosmos 2227 Rocket 2.2 04:47:52 40° SSW 04:50:01 84° ESE 04:55:44 10° NE
Cosmos 1726 Rocket 3.4 04:46:13 10° NNW 04:50:39 75° W 04:51:48 48° S
Lacrosse 5 rocket 1.6 04:50:02 58° WNW 04:50:50 75° NNW 04:55:16 10° ENE
CZ-2D R/B 3.3 04:47:26 10° NNE 04:51:29 84° ESE 04:52:16 57° S
Okean O Rocket 2.2 04:50:35 10° NNE 04:54:57 56° E 04:57:59 19° S
Cosmos 2100 Rocket 3.9 04:49:58 10° NNW 04:56:14 82° W 05:02:32 10° S
Cosmos 2297 Rocket 2.3 04:55:48 30° SSW 04:58:39 75° ESE 05:04:20 10° NE
Cosmos 1802 Rocket 3.9 04:54:58 10° NNW 05:01:13 90° WSW 05:07:22 10° S
MOZ.5/SAFIR/RUBIN 5/SL-8 3.8 05:00:10 37° SSW 05:01:44 54° W 05:06:27 10° NNW
Cosmos 2061 Rocket 3.9 04:58:16 10° NNW 05:04:36 79° W 05:10:58 10° S
Cosmos 192 4.2 05:01:08 10° NNW 05:06:07 77° WSW 05:11:03 10° SSE
Cosmos 1725 Rocket 4.5 04:59:57 10° N 05:06:16 64° ENE 05:12:28 10° SSE
Cosmos 2228 2.9 05:04:58 10° NNW 05:09:25 84° W 05:13:48 10° S
Cosmos 2084 Rocket 3.0 05:08:38 47° WNW 05:09:37 74° SW 05:13:33 10° SE
CZ-4B R/B 3.6 05:07:06 10° NNE 05:11:28 62° ESE 05:15:57 10° S
Cosmos 2084 3.4 05:12:04 45° WNW 05:12:46 54° NNW 05:16:34 10° NE
Cosmos 1892 Rocket 3.6 05:10:07 19° S 05:13:17 84° E 05:17:47 10° NNE
Meteor 1-13 Rocket 4.3 05:10:32 30° SW 05:13:17 59° WNW 05:18:54 10° N
Cosmos 1943 3.6 05:08:13 10° NNW 05:13:50 65° NE 05:19:26 10° SE
ADEOS 4.4 05:09:45 10° N 05:14:20 31° WNW 05:15:26 28° W
Lacrosse 5 2.0 05:14:37 34° SW 05:16:48 69° SSE 05:21:51 10° ENE
ADEOS Rocket 3.7 05:11:25 10° NNE 05:18:40 64° E 05:25:08 10° S
ERS-2 2.9 05:15:17 10° N 05:18:39 34° WNW 05:18:39 34° WNW
CZ-4B DEB 4.5 05:15:01 10° NNE 05:20:30 70° ESE 05:26:00 10° S
ADEOS II 3.2 05:16:06 10° NNE 05:21:10 45° E 05:26:12 10° S
Cosmos 1603 3.6 05:15:49 10° NW 05:21:32 67° WSW 05:27:10 10° SSE
UNKNOWN OBJECT B 3.3 05:18:00 10° N 05:21:46 41° WNW 05:22:28 37° W
COS B Rocket 2.1 05:21:56 79° NW 05:21:56 79° NW 05:24:41 10° N
Okean 1-7 Rocket 4.3 05:25:18 31° W 05:26:03 33° WNW 05:30:07 10° N
Cosmos 2016 Rocket 3.9 05:20:03 10° NNW 05:26:25 74° W 05:32:40 10° S
SeaSat 1 4.0 05:22:17 10° ESE 05:26:45 35° NE 05:31:13 10° NNW
Cosmos 1461 4.2 05:25:35 22° WNW 05:27:17 29° NNW 05:31:00 10° NE
Cosmos 1812 Rocket 3.9 05:23:06 10° N 05:27:34 70° ENE 05:32:01 10° SSE
CENTAUR R/B 3.3 05:21:32 10° NW 05:28:42 45° WSW 05:36:23 10° S
Okean 2 3.3 05:27:30 20° SSW 05:30:17 72° WNW 05:34:27 10° N
Cosmos 2173 Rocket 4.0 05:25:21 10° NNW 05:31:16 53° W 05:37:11 10° SSW
Cosmos 2082 3.8 05:30:09 25° WSW 05:33:21 60° NW 05:38:57 10° NNE
Cosmos 1459 Rocket 4.2 05:28:44 10° NNW 05:34:53 51° W 05:40:56 10° SSW
SL-08 R/B 4.4 05:30:24 10° NNW 05:36:37 74° W 05:42:55 10° S
Cosmos 1727 Rocket 4.4 05:34:44 20° SW 05:38:50 44° WNW 05:44:55 10° N
Cosmos 1048 Rocket 4.1 05:35:08 10° NNW 05:40:20 78° ENE 05:45:27 10° SSE
PAYLOAD B 4.2 05:35:51 10° NNE 05:41:23 79° WNW 05:46:54 10° SSW
Cosmos 2298 Rocket 4.0 05:36:49 13° SSW 05:41:39 86° WNW 05:47:01 10° NNE
Cosmos 1346 Rocket 3.1 05:40:49 23° SW 05:42:58 48° WNW 05:46:56 10° N
Meteor 2-15 4.4 05:38:23 10° S 05:44:27 88° E 05:50:34 10° NNE
Cosmos 1269 Rocket 4.0 05:41:02 10° NNW 05:46:22 86° WSW 05:51:39 10° SSE
Cosmos 158 Rocket 4.4 05:45:55 10° NNW 05:50:56 64° ENE 05:56:02 10° SE
Cosmos 2058 Rocket 3.9 05:47:43 10° NNW 05:51:27 28° W 05:55:01 11° SW
Cosmos 2150 Rocket 3.9 05:49:32 10° SSW 05:54:42 78° WNW 05:59:55 10° NNE
Cosmos 2123 Rocket 4.1 05:48:49 10° S 05:54:59 82° E 06:01:13 10° NNE
CZ-4B R/B 3.2 05:49:56 10° NNE 05:55:18 67° WNW 06:00:44 10° SSW
PSLV R/B 4.4 05:51:41 10° N 05:55:33 40° WNW 05:58:34 15° SW
Thor Agena Rocket 3.9 05:50:50 10° S 05:55:51 42° W 06:00:53 10° NNW
RESURS DK-1 3.0 05:55:29 21° WSW 05:57:52 40° NW 06:01:50 10° NNE
CZ-2D R/B 3.3 05:53:40 10° N 05:57:52 25° NW 06:00:37 17° W
Cosmos 1025 Rocket 4.0 05:56:34 19° WSW 05:58:35 28° WNW 06:02:20 10° N
USA 116 4.2 05:55:12 10° S 05:59:50 50° W 06:03:57 10° NNW
Cosmos 2082 Rocket 4.4 05:58:48 10° NNW 06:02:49 19° NNE 06:06:48 10° ENE
Intercosmos 25 Rocket 3.2 06:00:56 10° NNW 06:04:19 79° W 06:08:59 10° S
IRS-1C Rocket 4.4 05:59:25 10° N 06:04:30 48° WNW 06:09:33 10° SW
Cosmos 1766 3.8 06:00:30 10° N 06:04:30 64° ENE 06:08:29 10° SSE
AVUM R/B 3.5 06:04:38 25° WSW 06:04:51 26° WSW 06:06:53 10° S
USA 229 DEB 4.0 05:58:09 10° NW 06:05:14 74° NE 06:12:23 10° ESE
USA 229 4.0 05:58:15 10° NW 06:05:19 74° NE 06:12:28 10° ESE
Okean-O 2.7 06:00:55 10° NNE 06:05:24 88° ESE 06:09:51 10° SSW
Meteor 2-15 Rocket 4.4 05:59:32 10° SSW 06:05:37 79° WNW 06:11:45 10° N
COSMO-SKYMED 1 2.8 06:04:22 10° SSE 06:08:41 76° ENE 06:13:04 10° NNW
Meteor 1-31 Rocket 3.4 06:05:27 10° NNE 06:09:21 62° ESE 06:13:15 10° S
Resurs 1-4 Rocket 3.5 06:06:12 10° N 06:10:09 22° NW 06:13:14 13° W
SL-16 R/B 4.3 06:11:21 10° WNW 06:11:21 10° WNW 06:11:33 10° WNW
Cosmos 1515 3.6 06:09:26 10° SSW 06:13:15 72° WNW 06:17:06 10° N
Cosmos 2227 4.4 06:07:33 10° SSW 06:13:18 77° ESE 06:19:05 10° NE
NOSS 3-1 (C) 4.5 06:07:16 10° NW 06:14:05 56° NNE 06:21:48 10° ESE
NOSS 3-4 (A) 3.9 06:08:59 14° WSW 06:14:34 58° NNW 06:21:17 10° NE
Cosmos 1898 Rocket 3.7 06:09:23 10° SW 06:14:36 56° NW 06:19:49 10° NNE
NOSS 3-4 (C) 3.9 06:09:04 14° WSW 06:14:40 59° NNW 06:21:24 10° NE
SL-16 R/B 3.7 06:14:03 10° WNW 06:16:40 13° W 06:19:17 10° WSW
Cosmos 2098 Rocket 4.0 06:15:49 10° NW 06:19:06 26° W 06:23:00 10° SSW
Meteor 2-4 Rocket 4.5 06:14:31 10° SW 06:19:57 37° WNW 06:25:27 10° N
Feng Yun 1-1 Rocket 4.3 06:14:21 10° NNE 06:20:02 86° WNW 06:25:49 10° SSW
Cosmos 1340 3.0 06:16:42 10° S 06:20:28 71° E 06:24:17 10° NNE
Cosmos 1125 Rocket 4.4 06:16:05 10° S 06:21:07 52° ESE 06:26:12 10° NE
Meteor PRIRODA 3.6 06:18:05 10° N 06:21:50 69° WNW 06:25:31 10° SSW
Cosmos 1937 Rocket 3.6 06:17:13 10° SW 06:22:26 63° WNW 06:27:44 10° NNE
Cosmos 1626 Rocket 3.6 06:18:11 10° SSW 06:22:29 57° WNW 06:26:47 10° N
Cosmos 1464 Rocket 4.4 06:16:39 10° N 06:22:48 69° ENE 06:28:54 10° SSE
Cosmos 2344 4.3 06:17:44 12° W 06:25:29 60° NNW 06:35:58 10° ENE
ARIANE 5 R/B 4.3 06:22:53 10° NNW 06:25:36 15° NW 06:28:17 10° WNW
Cosmos 1805 4.0 06:25:49 10° N 06:29:44 58° ENE 06:33:36 10° SSE
Lacrosse 5 rocket 1.7 06:25:52 10° WNW 06:30:25 73° N 06:34:43 10° E
Okean O Rocket 2.8 06:27:27 10° N 06:31:04 25° WNW 06:34:39 10° WSW
Cosmos 2233 Rocket 4.1 06:26:17 10° NNW 06:32:26 58° W 06:38:31 10° S
Cosmos 2227 Rocket 3.2 06:29:46 10° W 06:34:45 30° NW 06:39:45 10° NNE
CZ-4B R/B 3.7 06:32:01 10° NNE 06:36:00 78° WNW 06:39:47 10° SSW
Cosmos 1066 Rocket 4.3 06:31:19 10° SSW 06:37:03 83° WNW 06:42:58 10° NNE
ATLAS 2AS CENTAUR R/B 3.8 06:29:18 10° WNW 06:37:07 47° N 06:44:51 10° E
NOAA 6 4.2 06:33:04 10° NNE 06:38:19 83° ESE 06:43:32 10° SSW
DNEPR-1 R/B 4.3 06:33:48 10° NW 06:38:40 39° WSW 06:42:49 10° S
Iridium 4 Rocket 3.3 06:37:02 10° S 06:41:37 83° E 06:45:56 10° N
PSLV R/B 4.2 06:38:00 10° N 06:42:01 37° WNW 06:45:59 10° SW
Cosmos 1953 Rocket 4.1 06:37:59 10° S 06:42:26 69° E 06:46:56 10° NNE
Cosmos 2297 Rocket 3.1 06:38:10 10° W 06:43:15 33° NW 06:48:21 10° NNE
MOS 1 Rocket 3.4 06:39:49 10° N 06:44:32 63° WNW 06:49:32 10° SSW
Cosmos 1953 2.5 06:40:39 10° N 06:44:40 81° ENE 06:48:42 10° SSE
